Back to catalog

FENGYUN 1C DEB

AlivePO
NORAD 29871·DEBRIS·🇨🇳 China

Launched May 10, 1999 from Taiyuan Satellite Launch Center

Loading…

Next Passes (next 24 hours)

TLE

FreshSource: Space-Track

Epoch: Sep 14, 2026, 09:37 UTC

1 29871U 99025FR  26257.40123175  .00002027  00000-0  59395-3 0  9992
2 29871  99.0000 230.7197 0057342  11.0532 145.1076 14.44146644 26784

Track FENGYUN 1C DEB in real time with AllMySat

Download on the App Store